Location: Santiago
(33.4378°S, 70.6505°W)
Time: 07:13:14
(UTC+00:00)

ISS - Pass Details

Date: 16 June 2024
Orbit: 410 x 424 km, 51.6° (Epoch: 13 July)

Event Time Altitude Azimuth Distance (km) Brightness Sun altitude
Rises 23:25:28 0° 275° (W) 2,384 1.6 -21.0°
Reaches altitude 10° 23:28:11 10° 251° (WSW) 1,520 -0.1 -21.5°
Maximum altitude 23:30:22 16° 211° (SSW) 1,212 -1.3 -22.0°
Enters shadow 23:30:48 16° 202° (SSW) 1,226 -1.3 -22.1°
